THY8MD LTFM-OKKK

Flight info

Callsign THY8MD
Flight time N/A
Altitude 37000
Route VICEN UT57 VEVUD UT341 BAG UW75 KEMER DCT ADKAR DCT TUNLA L601 SALIM/N0479F390 L601 KTN R655 TAN G202 RAPLU DCT BABIL T315 LOVEK T231 ILMAP P975 SIDAD
Aircraft B77W/H-SDE1E2E3FGHIJ2J3J4J5M1RWXY/LB1D1

Departure

Time 2026-02-17 15:09
Airport İstanbul Airport (LTFM)

Arrival

Time N/A
Airport Kuwait International Airport (OKKK)
Time Latitude Longitude Altitude Speed Heading
2026-02-17 14:40 41.26574 28.73767 318 ft 0 kts 269°
2026-02-17 14:51 41.26574 28.73771 318 ft 2 kts 269°
2026-02-17 14:51 41.26575 28.73795 318 ft 3 kts 268°
2026-02-17 14:51 41.26576 28.73822 318 ft 3 kts 263°
2026-02-17 14:51 41.26578 28.73844 317 ft 3 kts 256°
2026-02-17 14:52 41.26585 28.73868 315 ft 3 kts 228°
2026-02-17 14:52 41.26599 28.73881 315 ft 3 kts 184°
2026-02-17 14:52 41.26618 28.73879 315 ft 3 kts 168°
2026-02-17 14:52 41.26635 28.73875 317 ft 1 kts 178°
2026-02-17 14:53 41.26637 28.73875 317 ft 0 kts 179°
2026-02-17 14:55 41.26563 28.73926 318 ft 7 kts 80°
2026-02-17 14:55 41.26600 28.73947 318 ft 7 kts
2026-02-17 14:55 41.26651 28.73946 318 ft 8 kts 359°
2026-02-17 14:55 41.26714 28.73945 318 ft 10 kts 359°
2026-02-17 14:56 41.26788 28.73943 318 ft 12 kts 359°
2026-02-17 14:56 41.26865 28.73925 318 ft 9 kts 315°
2026-02-17 14:56 41.26873 28.73836 318 ft 11 kts 270°
2026-02-17 14:56 41.26873 28.73731 318 ft 12 kts 269°
2026-02-17 14:57 41.26871 28.73612 318 ft 14 kts 269°
2026-02-17 14:57 41.26870 28.73477 318 ft 15 kts 269°
2026-02-17 14:57 41.26868 28.73331 318 ft 17 kts 269°
2026-02-17 14:57 41.26867 28.73231 317 ft 18 kts 269°
2026-02-17 14:59 41.26866 28.73087 314 ft 21 kts 273°
2026-02-17 14:59 41.26939 28.72982 315 ft 11 kts
2026-02-17 14:59 41.27025 28.72981 314 ft 14 kts 359°
2026-02-17 15:00 41.27130 28.72979 310 ft 16 kts 358°
2026-02-17 15:00 41.27253 28.72974 309 ft 19 kts 358°
2026-02-17 15:00 41.27393 28.72973 308 ft 22 kts 359°
2026-02-17 15:00 41.27554 28.72977 302 ft 25 kts
2026-02-17 15:01 41.27739 28.72977 295 ft 29 kts 359°
2026-02-17 15:01 41.27952 28.72972 286 ft 33 kts 359°
2026-02-17 15:01 41.28171 28.72966 279 ft 27 kts 359°
2026-02-17 15:01 41.28361 28.72961 272 ft 27 kts 359°
2026-02-17 15:02 41.28553 28.72956 268 ft 27 kts 359°
2026-02-17 15:02 41.28723 28.72952 267 ft 23 kts 359°
2026-02-17 15:02 41.28882 28.72948 263 ft 24 kts 359°
2026-02-17 15:03 41.29281 28.72939 237 ft 34 kts 359°
2026-02-17 15:03 41.29520 28.72938 230 ft 27 kts 360°
2026-02-17 15:03 41.29686 28.72938 227 ft 22 kts 360°
2026-02-17 15:03 41.29830 28.72938 231 ft 10 kts 360°
2026-02-17 15:04 41.29875 28.72913 230 ft 4 kts 308°
2026-02-17 15:04 41.29878 28.72901 233 ft 0 kts 287°
2026-02-17 15:07 41.29881 28.72723 226 ft 21 kts 267°
2026-02-17 15:07 41.29882 28.72641 225 ft 5 kts 270°
2026-02-17 15:07 41.29882 28.72592 225 ft 6 kts 270°
2026-02-17 15:07 41.29882 28.72529 224 ft 8 kts 270°
2026-02-17 15:08 41.29870 28.72462 227 ft 5 kts 220°
2026-02-17 15:08 41.29834 28.72453 226 ft 6 kts 179°
2026-02-17 15:08 41.29588 28.72457 234 ft 75 kts 178°
2026-02-17 15:08 41.28810 28.72472 259 ft 145 kts 179°
2026-02-17 15:09 41.27661 28.72488 547 ft 177 kts 179°
2026-02-17 15:09 41.26447 28.72537 1422 ft 173 kts 180°
2026-02-17 15:09 41.25278 28.72593 2363 ft 169 kts 180°
2026-02-17 15:09 41.24005 28.72639 2656 ft 199 kts 179°
2026-02-17 15:10 41.22537 28.72710 3174 ft 216 kts 179°
2026-02-17 15:10 41.21033 28.73177 3710 ft 237 kts 151°
2026-02-17 15:10 41.19931 28.74844 4539 ft 253 kts 125°
2026-02-17 15:11 41.18399 28.79240 6315 ft 265 kts 122°
2026-02-17 15:11 41.17646 28.81493 7155 ft 270 kts 121°
2026-02-17 15:11 41.16892 28.83765 8032 ft 274 kts 121°
2026-02-17 15:11 41.16118 28.86098 8920 ft 279 kts 120°
2026-02-17 15:12 41.15317 28.88503 9752 ft 283 kts 120°
2026-02-17 15:12 41.14512 28.90916 10530 ft 292 kts 120°
2026-02-17 15:12 41.13659 28.93445 10834 ft 319 kts 120°
2026-02-17 15:12 41.12706 28.96258 11072 ft 348 kts 120°
2026-02-17 15:13 41.11682 28.99292 11812 ft 362 kts 119°
2026-02-17 15:13 41.10662 29.02332 12791 ft 370 kts 119°
2026-02-17 15:13 41.09606 29.05479 13802 ft 376 kts 119°
2026-02-17 15:13 41.08536 29.08662 14783 ft 381 kts 119°
2026-02-17 15:14 41.07448 29.11889 15745 ft 387 kts 119°
2026-02-17 15:14 41.06342 29.15164 16706 ft 393 kts 119°
2026-02-17 15:14 41.05213 29.18498 17657 ft 399 kts 119°
2026-02-17 15:15 41.02902 29.25305 19287 ft 411 kts 119°
2026-02-17 15:15 41.01718 29.28781 20081 ft 417 kts 119°
2026-02-17 15:15 41.00517 29.32308 20871 ft 423 kts 119°